Wind_Speed
2 2 4 6 4 5 20 19 21 18 16 16 12 11 15 15 22 26 30 16 16 20 22 14 10 8 8 8 7 3 5 5 8 7 7 6 6 4 8 11 12 11 7 10
7 6 6 3 4 11 8 9 11 13 8 14 9 8 6 5 13 21 23 15 12 15 16 16 14 9 10 9 5 2 2 3 7 7 7 7 8 7 8 10 14 15 13 14
10 10 3 12 10 10 8 8 6 13 10 8 12 7 9 7 12 17 13 25 26 16 13 17 14 12 11 13 11 9 4 3 3 3 6 8 8 6 9 12 18 20 24 25
9 7 9 13 9 11 8 10 7 6 10 8 3 3 10 10 8 17 19 24 28 25 11 12 16 14 11 12 10 8 7 4 2 4 5 8 10 8 11 12 13 20 18 14
9 7 3 7 10 11 8 9 5 2 7 9 3 11 8 6 12 19 17 22 21 21 16 9 13 15 11 10 11 12 8 7 6 4 8 9 11 11 11 15 10 14 24 14
3 4 7 13 10 10 7 5 1 2 9 17 12 2 10 1 16 19 23 28 20 19 15 14 11 11 10 11 7 8 7 7 9 4 10 11 11 12 12 14 11 10 23 16
8 8 15 18 3 4 6 4 5 6 14 18 12 9 17 6 11 18 23 26 19 12 16 17 16 12 8 7 6 8 4 6 9 10 10 11 11 12 11 13 14 16 18 15
7 8 4 11 15 21 22 12 4 10 14 15 14 11 12 10 12 18 20 19 12 14 23 18 18 12 8 7 4 7 9 7 9 11 11 11 11 13 13 16 12 23 22 14
9 11 9 11 13 15 11 8 10 15 7 9 13 16 5 14 26 32 16 18 21 13 24 29 19 10 11 7 7 7 10 10 8 11 14 14 13 12 13 15 15 28 22 15
13 15 15 12 8 12 11 6 10 14 15 16 16 17 19 20 23 23 23 21 26 29 30 27 21 14 14 12 9 9 10 12 11 11 12 14 13 13 9 6 12 22 18 14
18 21 21 26 17 15 22 12 19 11 15 18 13 21 20 26 22 29 27 28 31 28 21 20 22 30 14 10 10 11 11 12 12 11 13 13 12 13 8 4 15 13 13 11
25 19 18 18 17 22 24 25 22 16 19 22 19 20 36 34 28 26 39 21 14 22 23 26 27 29 11 13 10 11 9 11 13 12 13 13 14 12 10 6 8 13 13 12
25 22 26 24 18 20 30 32 30 31 29 27 25 26 31 39 36 25 37 36 39 23 24 29 29 31 21 11 3 11 11 10 13 13 12 12 13 14 10 9 9 10 8 10
25 24 26 28 26 24 30 34 36 36 34 38 34 34 35 41 38 37 35 32 37 24 22 26 24 31 27 20 10 14 11 15 15 15 14 12 12 13 15 11 12 12 12 11
26 24 27 29 30 29 28 32 37 39 38 38 37 36 36 41 50 55 42 38 33 26 35 31 30 31 28 22 21 22 20 16 18 18 17 15 14 15 16 16 15 15 16 15
36 35 30 28 26 29 30 28 29 35 40 43 45 45 52 46 49 57 60 58 50 38 30 26 27 26 30 29 24 24 25 22 17 20 19 17 15 17 14 20 18 19 19 18
36 35 34 33 29 31 29 23 27 29 32 36 36 40 48 55 56 56 60 63 61 35 27 26 26 37 44 43 39 32 33 28 24 21 20 17 17 17 18 19 20 19 21 20
34 34 34 33 33 35 28 30 30 34 30 37 40 44 46 49 50 53 52 49 50 52 50 49 51 54 46 44 47 39 32 31 28 26 24 19 17 14 15 16 21 21 21 21
34 34 32 33 35 37 33 37 38 36 37 42 47 46 46 46 49 48 49 51 52 53 51 36 36 41 41 42 42 40 37 32 31 31 25 25 18 14 11 14 18 23 24 24
37 38 38 36 37 39 38 38 41 41 40 44 46 48 48 45 45 49 45 47 51 51 49 41 33 35 34 40 40 41 39 35 34 35 31 31 22 14 12 13 17 22 23 25
35 38 40 43 39 32 38 42 42 42 43 42 42 44 51 47 47 46 48 51 49 49 46 42 36 37 36 34 38 41 40 38 37 35 32 29 25 19 17 17 15 16 19 22
37 41 42 42 43 43 42 40 43 43 48 45 45 41 43 47 45 45 46 43 44 45 43 41 39 39 37 35 36 37 41 42 40 37 40 38 31 24 23 19 19 17 18 19
40 45 46 43 43 43 39 40 39 37 37 42 46 47 48 46 43 41 41 39 41 43 44 42 40 41 42 40 36 35 39 44 42 41 44 38 38 33 31 25 23 20 19 21
37 38 36 34 33 34 31 37 39 42 42 41 38 35 35 37 38 39 40 38 39 40 41 45 43 43 43 42 43 40 41 45 45 47 49 41 40 42 39 31 23 23 24 21
34 32 30 30 31 23 23 29 33 37 40 42 40 36 36 38 39 41 40 39 40 39 40 44 45 46 47 45 46 45 43 47 47 47 47 46 44 42 41 31 27 26 25 26
28 26 23 20 24 24 19 24 31 36 38 40 43 39 35 37 38 39 39 42 41 42 44 43 42 45 45 44 44 45 43 48 49 51 48 48 50 48 44 43 37 32 33 29
Wind_Direction
278 289 276 281 122 225 266 261 263 261 286 316 334 338 34 9 344 349 354 341 3 16 26 20 357 335 342 338 303 246 259 288 286 273 277 258 261 220 200 211 225 235 218 206
280 266 281 318 250 240 262 256 273 278 285 289 312 334 56 358 323 337 329 346 16 19 37 10 4 352 355 343 312 252 259 291 276 277 265 272 259 256 236 240 234 239 241 211
280 295 282 265 284 277 284 269 301 318 318 319 307 44 46 318 314 327 314 10 353 353 18 20 11 337 0 345 325 323 265 273 308 286 264 269 273 267 260 259 257 250 233 242
279 258 253 257 280 273 252 263 241 284 325 321 301 179 358 2 314 331 312 344 345 330 350 7 17 10 358 358 340 324 285 291 323 309 273 262 268 264 264 268 274 247 239 191
262 281 328 308 273 269 280 269 313 47 8 7 57 334 340 284 298 325 322 324 323 313 313 330 0 359 2 4 350 355 324 283 268 268 278 267 270 276 277 281 276 222 177 184
332 48 357 342 296 291 283 275 281 269 12 7 339 25 209 6 308 307 306 323 322 303 307 311 317 334 355 10 355 333 327 301 294 303 290 274 264 269 270 282 260 228 180 180
157 30 336 330 330 296 294 293 186 85 352 338 28 10 333 24 256 283 299 306 316 304 314 304 309 315 345 1 7 318 327 312 290 289 293 275 270 270 284 274 264 186 171 180
81 329 311 302 312 314 323 290 254 317 309 319 334 287 198 199 277 279 287 295 315 338 338 328 321 312 325 345 1 333 339 319 296 290 291 295 276 275 281 289 230 185 177 182
153 167 132 295 312 303 343 280 186 256 236 290 306 327 306 265 293 301 256 256 282 301 321 318 286 311 290 307 338 344 345 332 307 307 301 301 295 286 290 289 232 183 176 189
276 251 201 197 285 296 305 324 276 242 261 251 219 292 301 288 289 283 264 254 277 292 301 290 283 14 303 308 319 336 337 342 328 311 303 296 293 284 288 291 258 176 184 194
277 266 233 252 237 235 260 250 292 275 255 258 240 275 295 268 254 262 260 251 254 272 297 307 314 304 295 288 307 336 342 336 329 307 293 292 284 279 275 233 188 158 183 199
289 287 273 252 259 243 238 252 240 266 278 281 235 250 268 260 250 261 293 286 221 245 300 299 290 296 161 263 292 315 333 321 318 311 295 286 279 274 273 247 184 196 207 175
279 277 279 281 271 236 236 239 240 236 248 249 257 261 275 280 275 260 269 273 279 273 273 286 285 288 291 295 316 306 306 314 313 307 306 287 285 272 266 250 207 199 202 201
280 279 273 274 271 256 251 240 239 238 237 237 239 241 246 245 252 261 271 282 279 268 264 280 264 285 295 318 307 281 284 299 306 306 300 294 281 274 267 256 240 212 203 199
281 277 276 277 277 273 261 256 255 250 253 248 244 240 251 258 264 254 269 267 259 240 266 271 260 261 272 279 278 289 289 279 287 297 296 294 285 272 265 258 244 234 215 215
294 296 290 282 280 278 275 271 264 256 257 258 254 254 249 246 254 268 272 269 262 260 272 238 249 267 276 276 274 275 287 280 275 284 287 289 282 275 259 254 239 238 230 221
284 285 286 288 287 282 282 283 268 264 262 262 262 256 256 257 260 258 257 263 265 262 236 248 238 271 276 276 272 268 275 278 277 271 278 276 269 272 272 252 235 235 234 228
279 281 283 284 283 281 284 279 277 271 259 247 250 256 258 262 268 268 274 275 272 267 262 256 261 265 267 263 265 265 259 267 269 266 267 267 268 271 271 262 246 238 238 236
278 278 281 281 282 286 287 281 272 264 254 259 259 261 267 267 264 262 265 268 273 274 272 259 256 255 253 255 256 258 254 254 260 261 252 272 263 265 274 258 248 241 236 238
288 289 290 290 288 287 285 280 280 277 260 257 256 259 260 258 257 266 271 269 266 264 266 264 260 256 252 249 247 251 249 247 250 252 252 254 250 257 258 252 245 241 239 240
287 291 290 291 292 284 284 286 285 276 277 276 263 272 270 275 276 274 273 270 263 261 259 260 250 245 245 246 244 244 248 245 244 236 238 243 243 247 250 249 242 235 234 235
289 285 284 284 282 278 286 286 272 273 280 286 274 288 276 277 274 270 266 261 258 258 256 251 243 239 241 243 244 245 244 244 242 243 236 242 238 236 246 244 241 233 237 235
286 287 291 289 286 287 290 289 286 279 272 269 271 270 273 276 274 272 271 266 259 255 255 255 250 243 237 242 243 246 246 244 242 239 230 230 237 232 237 238 240 235 237 235
290 290 294 296 297 285 281 277 283 281 281 280 280 279 276 276 278 278 274 268 261 257 254 253 250 248 246 242 247 249 245 242 239 238 234 225 231 246 238 221 229 238 239 236
296 299 298 290 289 286 275 274 277 281 284 285 285 283 282 282 278 272 267 266 264 261 256 255 253 250 247 245 246 248 242 237 237 238 233 234 237 236 247 243 236 239 242 240
301 299 296 298 290 295 299 288 291 292 290 285 283 283 287 286 279 275 267 265 264 260 255 249 250 251 249 245 241 242 236 236 232 234 234 232 236 239 241 239 236 245 237 236
Height
5914 5915 5915 5914 5912 5916 5915 5915 5916 5916 5916 5914 5913 5912 5908 5908 5906 5906 5905 5903 5901 5900 5896 5897 5897 5895 5895 5895 5893 5893 5891 5891 5891 5892 5893 5892 5893 5894 5896 5898 5898 5901 5903 5905
5911 5912 5911 5911 5913 5913 5913 5914 5915 5915 5913 5912 5911 5910 5907 5909 5909 5907 5906 5903 5903 5901 5899 5899 5896 5895 5895 5894 5893 5893 5890 5890 5891 5890 5891 5889 5891 5893 5894 5896 5896 5898 5900 5902
5908 5909 5907 5910 5910 5911 5911 5911 5912 5912 5911 5910 5909 5907 5907 5907 5907 5908 5905 5902 5902 5903 5901 5898 5896 5893 5893 5892 5890 5890 5890 5889 5888 5889 5889 5887 5888 5891 5892 5893 5893 5894 5896 5897
5906 5906 5907 5907 5908 5908 5908 5909 5908 5909 5909 5909 5907 5907 5904 5904 5906 5906 5903 5902 5899 5899 5901 5899 5898 5895 5892 5891 5889 5889 5887 5887 5886 5886 5887 5886 5885 5888 5889 5889 5890 5889 5891 5894
5902 5904 5904 5907 5907 5906 5907 5906 5907 5908 5908 5906 5906 5904 5896 5903 5903 5902 5901 5903 5902 5899 5899 5898 5896 5894 5892 5889 5886 5884 5885 5886 5887 5885 5885 5885 5883 5885 5886 5885 5885 5886 5889 5894
5901 5903 5904 5904 5903 5904 5905 5905 5906 5907 5906 5906 5904 5905 5897 5903 5901 5901 5899 5899 5898 5894 5893 5894 5893 5892 5890 5889 5887 5885 5885 5884 5884 5884 5883 5884 5884 5883 5884 5881 5881 5882 5885 5892
5900 5901 5901 5900 5901 5902 5903 5903 5904 5904 5905 5906 5904 5906 5900 5900 5902 5901 5898 5897 5897 5893 5891 5891 5891 5888 5888 5888 5887 5884 5883 5883 5883 5882 5882 5882 5882 5881 5880 5877 5877 5881 5885 5887
5897 5898 5896 5900 5900 5902 5901 5901 5902 5901 5903 5905 5904 5901 5902 5899 5899 5897 5893 5894 5892 5890 5889 5889 5889 5887 5885 5886 5885 5882 5880 5880 5880 5879 5879 5880 5880 5879 5877 5875 5874 5878 5882 5886
5895 5896 5897 5899 5900 5901 5899 5899 5900 5898 5901 5901 5902 5895 5898 5899 5897 5892 5893 5890 5887 5889 5887 5884 5881 5884 5884 5883 5882 5879 5879 5879 5878 5876 5876 5878 5878 5877 5876 5874 5873 5876 5881 5885
5896 5897 5894 5894 5895 5897 5898 5898 5899 5898 5896 5896 5898 5898 5896 5893 5888 5887 5885 5888 5887 5887 5887 5874 5875 5871 5884 5881 5880 5878 5877 5876 5875 5875 5875 5876 5877 5875 5876 5874 5874 5877 5880 5883
5889 5889 5893 5892 5893 5893 5891 5891 5892 5893 5893 5892 5894 5891 5892 5886 5881 5878 5876 5879 5884 5884 5887 5881 5865 5871 5881 5881 5879 5875 5875 5875 5875 5874 5873 5872 5874 5874 5876 5876 5873 5875 5878 5881
5884 5886 5885 5886 5888 5889 5886 5886 5888 5888 5886 5887 5888 5888 5874 5878 5875 5875 5871 5861 5874 5879 5880 5875 5871 5843 5856 5875 5878 5876 5874 5874 5873 5873 5872 5870 5870 5873 5874 5876 5876 5876 5876 5875
5879 5879 5876 5877 5882 5880 5876 5877 5879 5879 5879 5880 5880 5880 5872 5867 5866 5866 5866 5870 5873 5872 5874 5872 5868 5865 5871 5866 5866 5877 5874 5872 5872 5870 5870 5869 5868 5869 5872 5874 5876 5876 5876 5877
5872 5873 5871 5870 5871 5873 5870 5869 5870 5869 5869 5868 5872 5869 5861 5861 5858 5857 5857 5859 5861 5867 5868 5867 5866 5858 5857 5859 5864 5874 5874 5871 5870 5868 5868 5867 5867 5866 5867 5869 5872 5875 5875 5876
5866 5866 5864 5862 5861 5861 5863 5862 5863 5862 5861 5860 5862 5859 5853 5850 5848 5852 5853 5851 5854 5862 5863 5861 5860 5859 5859 5861 5866 5868 5867 5868 5867 5866 5865 5864 5864 5863 5864 5865 5867 5870 5873 5874
5853 5851 5852 5852 5853 5850 5849 5851 5852 5852 5852 5851 5850 5847 5841 5842 5837 5835 5835 5837 5845 5852 5853 5852 5855 5857 5854 5856 5858 5858 5860 5862 5863 5861 5862 5861 5860 5859 5860 5861 5863 5865 5868 5870
5847 5844 5843 5842 5842 5840 5842 5843 5841 5842 5842 5839 5835 5833 5828 5827 5827 5829 5830 5828 5833 5842 5846 5846 5847 5848 5851 5847 5848 5851 5852 5855 5858 5858 5858 5858 5857 5856 5855 5856 5858 5860 5863 5865
5839 5837 5836 5834 5833 5831 5834 5832 5830 5828 5829 5827 5824 5820 5818 5817 5817 5817 5820 5822 5822 5825 5831 5837 5838 5838 5838 5838 5835 5840 5845 5846 5850 5852 5854 5854 5853 5852 5852 5852 5853 5856 5859 5862
5831 5829 5828 5825 5823 5822 5822 5818 5816 5814 5815 5815 5811 5810 5809 5810 5810 5812 5813 5813 5810 5807 5806 5818 5821 5823 5825 5826 5828 5831 5835 5839 5842 5845 5847 5847 5848 5848 5848 5847 5848 5850 5853 5855
5819 5817 5817 5815 5812 5809 5808 5807 5803 5802 5802 5801 5798 5796 5797 5800 5800 5800 5799 5802 5801 5799 5798 5802 5807 5808 5812 5815 5818 5821 5825 5831 5834 5837 5839 5840 5842 5843 5843 5843 5842 5843 5846 5849
5813 5809 5805 5801 5799 5799 5792 5793 5792 5789 5789 5789 5790 5791 5790 5791 5790 5789 5786 5784 5784 5785 5788 5791 5795 5797 5800 5803 5806 5810 5813 5818 5824 5826 5830 5832 5834 5836 5835 5836 5837 5838 5839 5841
5803 5799 5797 5795 5791 5787 5783 5781 5782 5780 5775 5776 5776 5775 5775 5774 5771 5769 5768 5770 5769 5771 5773 5777 5781 5785 5789 5792 5795 5799 5803 5807 5812 5816 5818 5822 5825 5828 5829 5829 5830 5831 5832 5833
5791 5787 5785 5784 5781 5774 5772 5769 5767 5767 5766 5763 5760 5760 5758 5755 5755 5754 5753 5755 5756 5756 5758 5761 5767 5772 5777 5780 5783 5787 5791 5794 5800 5805 5809 5812 5815 5818 5820 5821 5821 5823 5825 5827
5781 5776 5774 5773 5772 5766 5766 5759 5756 5752 5750 5748 5748 5747 5747 5744 5743 5742 5740 5740 5741 5741 5744 5746 5750 5755 5760 5766 5769 5774 5778 5781 5786 5792 5798 5802 5805 5806 5808 5812 5815 5817 5819 5821
5771 5770 5767 5762 5758 5760 5757 5752 5748 5744 5740 5737 5735 5734 5734 5732 5730 5727 5726 5726 5726 5728 5730 5732 5735 5739 5744 5750 5754 5759 5764 5768 5773 5779 5785 5790 5794 5796 5800 5802 5805 5809 5813 5814
5764 5761 5758 5756 5751 5748 5750 5746 5740 5734 5732 5728 5723 5723 5721 5717 5714 5712 5711 5711 5713 5714 5716 5719 5721 5723 5728 5733 5738 5742 5750 5754 5760 5766 5772 5778 5784 5786 5791 5793 5794 5789 5799 5800